This is the latest recevied weather packets stored in our database for station/object IZ3LSV-13. If no packets are shown the sender has not sent any weather packets the latest 10 day(s).
| Time | Temp. | Humidity | Pressure | Rain* | Wind** | Luminosity | Snow |
|---|---|---|---|---|---|---|---|
| 1777659361 | 22.22° C | - | 1120.7 hPa | 0 mm | - | - | - |
| 1777659056 | 22.22° C | - | 1120.7 hPa | 0 mm | - | - | - |
| 1777658751 | 22.22° C | - | 1120.6 hPa | 0 mm | - | - | - |
| 1777658445 | 22.78° C | - | 1120.6 hPa | 0 mm | - | - | - |
| 1777658140 | 22.78° C | - | 1120.6 hPa | 0 mm | - | - | - |
| 1777657834 | 22.78° C | - | 1120.6 hPa | 0 mm | - | - | - |
| 1777657529 | 22.78° C | - | 1120.4 hPa | 0 mm | - | - | - |
| 1777657223 | 22.78° C | - | 1120.5 hPa | 0 mm | - | - | - |
| 1777656918 | 23.33° C | - | 1120.4 hPa | 0 mm | - | - | - |
| 1777656613 | 23.33° C | - | 1120.4 hPa | 0 mm | - | - | - |
| 1777656307 | 23.33° C | - | 1120.3 hPa | 0 mm | - | - | - |
| 1777656002 | 23.33° C | - | 1120.3 hPa | 0 mm | - | - | - |
| 1777655697 | 23.89° C | - | 1120.3 hPa | 0 mm | - | - | - |
| 1777655391 | 23.89° C | - | 1120.3 hPa | 0 mm | - | - | - |
| 1777655086 | 23.89° C | - | 1120.3 hPa | 0 mm | - | - | - |
| 1777654780 | 23.89° C | - | 1120.4 hPa | 0 mm | - | - | - |
| 1777654474 | 24.44° C | - | 1120.4 hPa | 0 mm | - | - | - |
| 1777654168 | 24.44° C | - | 1120.4 hPa | 0 mm | - | - | - |
| 1777653863 | 25° C | - | 1120.4 hPa | 0 mm | - | - | - |
| 1777653557 | 24.44° C | - | 1120.5 hPa | 0 mm | - | - | - |
| 1777653252 | 23.89° C | - | 1120.5 hPa | 0 mm | - | - | - |
| 1777652946 | 23.89° C | - | 1120.5 hPa | 0 mm | - | - | - |
| 1777652641 | 23.89° C | - | 1120.6 hPa | 0 mm | - | - | - |
| 1777652336 | 23.89° C | - | 1120.7 hPa | 0 mm | - | - | - |
| 1777652030 | 23.89° C | - | 1120.6 hPa | 0 mm | - | - | - |
* Rain latest hour (hover to see other rain measurements)
** Current wind speed in m/s (hover to see current wind gust speed)